DLH1058 EDDF-LFMN

Flight info

Callsign DLH1058
Flight time N/A
Altitude 31000
Route ANEKI2L/18 ANEKI Y163 NATOR/N0446F370 DCT TRA DCT RIPUS DCT GERSA DCT SOSON DCT ODINA DCT ENOBA/N0378F190 Z185 BORDI BORDI8R
Aircraft A21N/M-DLH/S

Departure

Time 2026-04-15 10:57
Airport Frankfurt Main Airport (EDDF)

Arrival

Time N/A
Airport Nice-Côte d'Azur Airport (LFMN)
Time Latitude Longitude Altitude Speed Heading
2026-04-15 10:30 50.04887 8.57445 366 ft 0 kts 217°
2026-04-15 10:40 50.04901 8.57463 369 ft 3 kts 217°
2026-04-15 10:40 50.04917 8.57477 373 ft 3 kts 188°
2026-04-15 10:40 50.04936 8.57476 371 ft 3 kts 146°
2026-04-15 10:41 50.04943 8.57467 371 ft 0 kts 126°
2026-04-15 10:42 50.04941 8.57470 371 ft 0 kts 126°
2026-04-15 10:42 50.04941 8.57471 371 ft 0 kts 123°
2026-04-15 10:45 50.04939 8.57476 371 ft 1 kts 114°
2026-04-15 10:45 50.04937 8.57484 373 ft 0 kts 116°
2026-04-15 10:45 50.04937 8.57485 373 ft 1 kts 116°
2026-04-15 10:45 50.04929 8.57520 370 ft 5 kts 104°
2026-04-15 10:46 50.04917 8.57585 375 ft 7 kts 110°
2026-04-15 10:46 50.04893 8.57672 372 ft 10 kts 113°
2026-04-15 10:46 50.04865 8.57772 370 ft 10 kts 114°
2026-04-15 10:46 50.04832 8.57873 376 ft 10 kts 134°
2026-04-15 10:47 50.04778 8.57920 371 ft 9 kts 160°
2026-04-15 10:47 50.04719 8.57953 373 ft 9 kts 160°
2026-04-15 10:47 50.04659 8.57987 374 ft 9 kts 160°
2026-04-15 10:47 50.04595 8.58024 372 ft 10 kts 158°
2026-04-15 10:48 50.04565 8.58090 372 ft 6 kts 91°
2026-04-15 10:48 50.04575 8.58156 375 ft 6 kts 70°
2026-04-15 10:48 50.04590 8.58219 375 ft 7 kts 70°
2026-04-15 10:48 50.04607 8.58289 375 ft 7 kts 70°
2026-04-15 10:49 50.04624 8.58361 371 ft 7 kts 69°
2026-04-15 10:49 50.04642 8.58437 372 ft 8 kts 70°
2026-04-15 10:49 50.04651 8.58519 370 ft 7 kts 98°
2026-04-15 10:49 50.04635 8.58559 372 ft 0 kts 140°
2026-04-15 10:51 50.04632 8.58563 371 ft 1 kts 146°
2026-04-15 10:51 50.04620 8.58572 372 ft 2 kts 155°
2026-04-15 10:51 50.04607 8.58580 372 ft 0 kts 159°
2026-04-15 10:52 50.04606 8.58580 372 ft 0 kts 159°
2026-04-15 10:54 50.04599 8.58584 375 ft 1 kts 160°
2026-04-15 10:54 50.04597 8.58585 375 ft 0 kts 160°
2026-04-15 10:55 50.04596 8.58586 375 ft 0 kts 159°
2026-04-15 10:55 50.04595 8.58587 374 ft 0 kts 158°
2026-04-15 10:55 50.04588 8.58591 373 ft 5 kts 158°
2026-04-15 10:56 50.04525 8.58616 380 ft 12 kts 184°
2026-04-15 10:56 50.04476 8.58553 378 ft 4 kts 251°
2026-04-15 10:56 50.04391 8.58189 374 ft 73 kts 250°
2026-04-15 10:56 50.04129 8.57081 375 ft 147 kts 250°
2026-04-15 10:57 50.03707 8.55313 598 ft 183 kts 248°
2026-04-15 10:57 50.02733 8.51111 1355 ft 229 kts 246°
2026-04-15 10:57 50.02045 8.48766 2021 ft 246 kts 249°
2026-04-15 10:58 50.01481 8.46201 2733 ft 258 kts 250°
2026-04-15 10:58 50.00729 8.43665 3455 ft 259 kts 219°
2026-04-15 10:58 49.99584 8.42925 3048 ft 264 kts 178°